Weather History for Jonesville, VA

Change the Weather History Date:

Sunday, April 28, 2013

  Actual Average (KLOZ) Record (KLOZ)
Temperature  
Mean Temperature 55 °F 60 °F  
Max Temperature 59 °F 72 °F 85 °F (1956)
Min Temperature 51 °F 48 °F 30 °F (1967)
Degree Days  
Heating Degree Days 10 6  
Month to date heating degree days 264  
Since 1 July heating degree days 4089  
Cooling Degree Days 0 1  
Month to date cooling degree days 20  
Year to date cooling degree days 23  
Growing Degree Days 5 (Base 50)    
Moisture  
Dew Point 53 °F    
Average Humidity 94    
Maximum Humidity 100    
Minimum Humidity 82    
Precipitation  
Precipitation 0.47 in 0.14 in 1.55 in (1970)
Month to date precipitation 3.78  
Year to date precipitation 15.08  
Sea Level Pressure  
Sea Level Pressure 30.08 in    
Wind  
Wind Speed 3 mph (East)    
Max Wind Speed 9 mph    
Max Gust Speed -    
Visibility 8 miles    
Events Rain , Thunderstorm    
T = Trace of Precipitation, MM = Missing Value Source: NWS Daily Summary

Daily Weather History Graph

Daily Weather History Graph

Search for Another Location

Airport:

Trip Planner

Search our weather history database for the weather conditions in past years. The results will help you decide how hot, cold, wet, or windy it might be!

Date:

Astronomy

Apr. 28, 2013 Rise Set
Actual Time 6:42 AM EDT 8:18 PM EDT
Civil Twilight 6:14 AM EDT 8:46 PM EDT
Nautical Twilight 5:41 AM EDT 9:19 PM EDT
Astronomical Twilight 5:06 AM EDT 9:54 PM EDT
Moon 11:45 PM EDT (4/28) 9:00 AM EDT (4/28)
Length of Visible Light 14h 31m
Length of Day
13h 36m
Waning Gibbous, 89% of the Moon is Illuminated
Apr 28
Waning Gibbous
May 2
Last Quarter
May 9
New
May 18
First Quarter
May 25
Full

Hourly Weather History & Observations

Time (EDT) Temp. Dew Point Humidity Pressure Visibility Wind Dir Wind Speed Gust Speed Precip Events Conditions
12:15 AM 53.6 °F 53.6 °F 100% 30.17 in 6.0 mi NE 4.6 mph - N/A Rain Light Rain
12:35 AM 53.6 °F 53.6 °F 100% 30.15 in 10.0 mi NE 4.6 mph - N/A   Overcast
12:55 AM 53.6 °F 53.6 °F 100% 30.15 in 10.0 mi NE 5.8 mph - N/A   Overcast
1:15 AM 53.6 °F 53.6 °F 100% 30.14 in 10.0 mi ENE 6.9 mph - N/A   Overcast
1:35 AM 53.6 °F 53.6 °F 100% 30.14 in 10.0 mi NE 5.8 mph - N/A Thunderstorm Overcast
1:55 AM 53.6 °F 51.8 °F 94% 30.12 in 10.0 mi Calm Calm - N/A   Overcast
2:15 AM 53.6 °F 51.8 °F 94% 30.10 in 10.0 mi ENE 4.6 mph - N/A   Overcast
2:35 AM 53.6 °F 50.0 °F 88% 30.11 in 10.0 mi Calm Calm - N/A   Overcast
2:55 AM 53.6 °F 50.0 °F 88% 30.09 in 10.0 mi East 6.9 mph - N/A   Overcast
3:15 AM 53.6 °F 50.0 °F 88% 30.09 in 10.0 mi East 5.8 mph - N/A   Overcast
3:35 AM 53.6 °F 50.0 °F 88% 30.08 in 10.0 mi East 5.8 mph - N/A   Overcast
3:55 AM 55.4 °F 50.0 °F 82% 30.11 in 10.0 mi Calm Calm - N/A   Overcast
4:35 AM 53.6 °F 51.8 °F 94% 30.13 in 7.0 mi NW 4.6 mph - 0.01 in Rain Light Rain
4:55 AM 53.6 °F 51.8 °F 94% 30.12 in 5.0 mi Calm Calm - 0.03 in Rain Light Rain
5:15 AM 53.6 °F 53.6 °F 100% 30.12 in 2.5 mi Calm Calm - 0.03 in Rain Rain
5:35 AM 51.8 °F 51.8 °F 100% 30.11 in 2.0 mi East 8.1 mph - 0.09 in Rain Rain
5:55 AM 51.8 °F 51.8 °F 100% 30.09 in 3.0 mi ENE 3.5 mph - 0.13 in Rain Light Rain
6:15 AM 51.8 °F 51.8 °F 100% 30.10 in 3.0 mi NE 3.5 mph - 0.02 in Rain Rain
6:35 AM 51.8 °F 51.8 °F 100% 30.13 in 2.0 mi Calm Calm - 0.06 in Rain Light Rain
6:55 AM 51.8 °F 51.8 °F 100% 30.14 in 2.5 mi Calm Calm - 0.10 in Rain Light Rain
7:15 AM 51.8 °F 51.8 °F 100% 30.13 in 2.5 mi Calm Calm - N/A Rain Light Rain
7:35 AM 51.8 °F 51.8 °F 100% 30.14 in 4.0 mi NE 3.5 mph - N/A   Mostly Cloudy
7:55 AM 51.8 °F 51.8 °F 100% 30.15 in 2.5 mi Calm Calm - 0.02 in Rain Light Rain
8:15 AM 53.6 °F 51.8 °F 94% 30.16 in 2.0 mi ESE 3.5 mph - 0.02 in Rain Light Rain
8:35 AM 51.8 °F 51.8 °F 100% 30.14 in 3.0 mi NE 3.5 mph - 0.05 in Rain Light Rain
8:55 AM 51.8 °F 51.8 °F 100% 30.12 in 10.0 mi East 5.8 mph - 0.05 in   Mostly Cloudy
9:15 AM 53.6 °F 51.8 °F 94% 30.12 in 10.0 mi East 5.8 mph - N/A   Overcast
9:35 AM 53.6 °F 51.8 °F 94% 30.12 in 10.0 mi East 5.8 mph - N/A   Overcast
9:55 AM 53.6 °F 51.8 °F 94% 30.13 in 10.0 mi East 3.5 mph - N/A   Overcast
10:15 AM 53.6 °F 51.8 °F 94% 30.15 in 10.0 mi Calm Calm - N/A   Overcast
10:35 AM 53.6 °F 51.8 °F 94% 30.16 in 2.0 mi Calm Calm - 0.04 in Rain Light Rain
10:55 AM 53.6 °F 53.6 °F 100% 30.17 in 3.0 mi Calm Calm - 0.06 in Rain Light Rain
11:35 AM 53.6 °F 53.6 °F 100% 30.14 in 2.0 mi ESE 9.2 mph - 0.07 in Rain Rain
11:55 AM 53.6 °F 53.6 °F 100% 30.12 in 5.0 mi ENE 4.6 mph - 0.08 in Rain Light Rain
12:15 PM 53.6 °F 51.8 °F 94% 30.11 in 6.0 mi Calm Calm - N/A Rain Light Rain
12:35 PM 53.6 °F 53.6 °F 100% 30.12 in 10.0 mi NNW 3.5 mph - N/A Rain Light Rain
12:55 PM 55.4 °F 53.6 °F 94% 30.09 in 7.0 mi ESE 3.5 mph - N/A Rain Light Rain
1:15 PM 55.4 °F 53.6 °F 94% 30.08 in 10.0 mi Calm Calm - N/A   Mostly Cloudy
1:35 PM 55.4 °F 53.6 °F 94% 30.08 in 10.0 mi ESE 4.6 mph - N/A   Overcast
1:55 PM 55.4 °F 53.6 °F 94% 30.07 in 10.0 mi East 3.5 mph - N/A   Overcast
2:15 PM 57.2 °F 53.6 °F 88% 30.06 in 10.0 mi ESE 5.8 mph - N/A   Mostly Cloudy
2:35 PM 57.2 °F 53.6 °F 88% 30.05 in 10.0 mi ESE 4.6 mph - N/A   Overcast
2:55 PM 57.2 °F 53.6 °F 88% 30.05 in 10.0 mi Calm Calm - N/A   Mostly Cloudy
3:15 PM 59.0 °F 53.6 °F 82% 30.04 in 10.0 mi Calm Calm - N/A   Scattered Clouds
3:35 PM 59.0 °F 53.6 °F 82% 30.04 in 10.0 mi SSE 4.6 mph - N/A   Mostly Cloudy
3:55 PM 57.2 °F 53.6 °F 88% 30.04 in 10.0 mi SE 8.1 mph - N/A   Mostly Cloudy
4:15 PM 59.0 °F 53.6 °F 82% 30.03 in 10.0 mi SSE 5.8 mph - N/A   Mostly Cloudy
4:35 PM 59.0 °F 53.6 °F 82% 30.02 in 10.0 mi ESE 3.5 mph - N/A   Overcast
4:55 PM 59.0 °F 53.6 °F 82% 30.01 in 10.0 mi SE 3.5 mph - N/A   Overcast
5:15 PM 59.0 °F 53.6 °F 82% 30.00 in 10.0 mi ESE 3.5 mph - N/A   Mostly Cloudy
5:35 PM 57.2 °F 53.6 °F 88% 30.00 in 10.0 mi SE 3.5 mph - N/A   Partly Cloudy
5:55 PM 57.2 °F 53.6 °F 88% 30.00 in 10.0 mi Calm Calm - N/A   Partly Cloudy
6:15 PM 57.2 °F 53.6 °F 88% 30.01 in 10.0 mi Calm Calm - N/A   Scattered Clouds
6:35 PM 57.2 °F 53.6 °F 88% 30.01 in 10.0 mi Calm Calm - N/A   Scattered Clouds
6:55 PM 57.2 °F 53.6 °F 88% 29.99 in 10.0 mi Calm Calm - N/A   Scattered Clouds
7:15 PM 57.2 °F 53.6 °F 88% 29.99 in 10.0 mi Calm Calm - N/A   Mostly Cloudy
7:35 PM 57.2 °F 53.6 °F 88% 29.99 in 10.0 mi Calm Calm - N/A   Partly Cloudy
7:55 PM 57.2 °F 55.4 °F 94% 29.98 in 10.0 mi Calm Calm - N/A   Clear
8:15 PM 55.4 °F 53.6 °F 94% 29.99 in 10.0 mi Calm Calm - N/A   Clear
8:35 PM 55.4 °F 53.6 °F 94% 29.99 in 10.0 mi Calm Calm - N/A   Clear
8:55 PM 53.6 °F 53.6 °F 100% 30.00 in 10.0 mi Calm Calm - N/A   Unknown
9:15 PM 53.6 °F 53.6 °F 100% 30.00 in 10.0 mi Calm Calm - N/A   Unknown
9:35 PM 53.6 °F 53.6 °F 100% 30.01 in 10.0 mi Calm Calm - N/A   Mostly Cloudy
9:55 PM 53.6 °F 53.6 °F 100% 30.01 in 10.0 mi Calm Calm - N/A   Overcast
10:15 PM 53.6 °F 53.6 °F 100% 30.02 in 10.0 mi Calm Calm - N/A   Overcast
10:35 PM 53.6 °F 53.6 °F 100% 30.02 in 10.0 mi Calm Calm - N/A   Overcast
10:55 PM 55.4 °F 53.6 °F 94% 30.03 in 10.0 mi Calm Calm - N/A   Overcast
11:15 PM 53.6 °F 53.6 °F 100% 30.02 in 10.0 mi Calm Calm - N/A   Overcast
11:35 PM 55.4 °F 53.6 °F 94% 30.02 in 10.0 mi Calm Calm - N/A   Overcast
11:55 PM 55.4 °F 53.6 °F 94% 30.02 in 10.0 mi Calm Calm - N/A   Overcast